Language selection

My Weather Profile Weather Topics  | 

West Brevoort - southern half: Past 24 Hour Conditions

 

Mary's Harbour

09:30 PM NDT 12 May 2021
Disclaimer

This table is a summary of hourly weather conditions for the past 24 hours.
Please note that these observations might not always be representative of weather conditions over their associated marine area.

Date / Time
(NDT)
Wind(knots) Conditions Visibility(km) Pressure(kPa) Air tempC) Relative humidity(%) Dew pointC)
12 May 2021
21:30 NW 16 gust 23 Light Rain 16 100.3 2 93 1
20:30 NW 15 gust 25 Light Rain 15 100.3 2 94 1
19:30 NW 16 gust 21 Light Rain 16 100.3 2 92 1
18:30 NNW 16 gust 24 Light Rain 16 100.4 3 93 2
17:30 NNW 16 gust 23 Light Rain 16 100.4 3 94 2
16:30 NNW 16 gust 26 Light Rain 15 100.4 3 93 2
15:30 NNW 17 gust 25 Light Rain 16 100.4 3 93 2
14:30 NNW 14 gust 24 Light Rain 13 100.4 3 93 2
13:30 NNW 15 gust 22 Light Rain 13 100.4 3 94 2
12:30 NNW 14 gust 20 Precipitation 6 100.5 2 97 2
11:30 NNW 12 gust 18 Precipitation 8 100.5 2 97 1
10:30 NNW 11 gust 19 Precipitation 10 100.5 2 97 1
9:30 NNW 11 gust 20 Light Snow 5 100.5 2 97 1
8:30 NNW 11 gust 18 Precipitation 16 100.5 1 97 1
7:30 NNW 11 gust 19 Light Rain 16 100.5 2 96 1
6:30 NW 14 Light Rain 10 100.5 1 97 1
5:30 NW 10 gust 15 Light Rain 8 100.5 1 97 1
4:30 NW 11 gust 18 Light Rain 16 100.5 2 96 1
3:30 NNW 12 gust 17 Light Rain 5 100.5 2 98 1
2:30 NW 12 gust 18 Light Rain 5 100.5 2 98 2
1:30 NNW 11 gust 16 Light Rain 5 100.6 2 99 2
0:30 NNW 10 gust 16 Light Rain 5 100.6 1 97 1
11 May 2021
23:30 NNW 13 gust 20 Light Rain 5 100.6 2 98 2
22:30 NNW 11 gust 20 Light Rain 3 100.6 1 97 1
21:30 NNW 13 gust 20 Light Rain 4 100.6 2 96 2

Zoom-in to make a selection

Map of Atlantic - Labrador marine weather areas Kangiqsualujjuaq Airport Cape Kakkiviak Cape Kiglapait Cartwright Airport CFB Goose Bay Hopedale Mary's Harbour Nain Airport Makkovik Airport Saglek Tukialik Bay
Legend:
buoy Buoy
land station Land Station

Atlantic - Labrador Area

Another Region

What we are doing

Date modified: